N3TJJ-2 Weather Reports


time (UTC)temp
C
wind
direction
speed
KPH
gust
KPH
rain 1hr
cm
rain 24hr
cm
rain mn
cm
humidity
%
barometer
mb
20260504081719 -17 0.0 0.0 0.00 0.00 0.00 1015.9
20260504081114 -17 0.0 0.0 0.00 0.00 0.00 1015.8
20260504080524 -17 0.0 0.0 0.00 0.00 0.00 1015.8
20260504050518 8 44 1.6 4.8 0.00 0.00 0.00 61 1016.0
20260504045921 8 62 3.2 6.4 0.00 0.00 0.00 62 1016.0
20260504045314 8 52 1.6 6.4 0.00 0.00 0.00 62 1016.0
20260504044724 8 0 0.0 6.4 0.00 0.00 0.00 62 1016.0
20260504044114 8 51 1.6 6.4 0.00 0.00 0.00 62 1016.0
20260504043513 8 52 1.6 3.2 0.00 0.00 0.00 63 1015.9
20260504042917 8 49 1.6 3.2 0.00 0.00 0.00 62 1015.8
20260504042317 8 0 0.0 0.0 0.00 0.00 0.00 63 1015.8
20260504041714 8 0 0.0 4.8 0.00 0.00 0.00 62 1015.7
20260504041114 8 0 0.0 4.8 0.00 0.00 0.00 62 1015.7
20260504040519 8 67 1.6 4.8 0.00 0.00 0.00 61 1015.6
20260504035921 8 68 1.6 6.4 0.00 0.00 0.00 61 1015.6
20260504035317 8 74 3.2 8.0 0.00 0.00 0.00 60 1015.7
20260504034722 8 73 3.2 8.0 0.00 0.00 0.00 60 1015.6
20260504034114 8 71 3.2 8.0 0.00 0.00 0.00 60 1015.6
20260504033517 8 74 4.8 8.0 0.00 0.00 0.00 60 1015.6
20260504032919 8 72 3.2 8.0 0.00 0.00 0.00 60 1015.5
20260504032317 8 73 3.2 8.0 0.00 0.00 0.00 59 1015.4
20260504031720 8 79 4.8 8.0 0.00 0.00 0.00 59 1015.3
20260504031114 8 63 1.6 4.8 0.00 0.00 0.00 60 1015.3
20260504030519 8 67 1.6 6.4 0.00 0.00 0.00 59 1015.3
20260504025919 9 69 1.6 8.0 0.00 0.00 0.00 58 1015.3
20260504025317 9 72 3.2 6.4 0.00 0.00 0.00 57 1015.2
20260504024725 9 59 1.6 4.8 0.00 0.00 0.00 58 1015.2
20260504024113 9 63 3.2 4.8 0.00 0.00 0.00 57 1015.2
20260504023513 10 63 1.6 6.4 0.00 0.00 0.00 56 1015.3
20260504022915 10 66 1.6 4.8 0.00 0.00 0.00 56 1015.3
20260504022315 10 68 3.2 6.4 0.00 0.00 0.00 54 1015.4
20260504021720 10 70 3.2 8.0 0.00 0.00 0.00 53 1015.4
20260504021114 10 74 4.8 8.0 0.00 0.00 0.00 53 1015.3
20260504020520 10 71 1.6 6.4 0.00 0.00 0.00 54 1015.4
20260504015920 10 71 3.2 6.4 0.00 0.00 0.00 52 1015.4
20260504015316 10 68 3.2 8.0 0.00 0.00 0.00 52 1015.3
20260504014726 10 72 3.2 6.4 0.00 0.00 0.00 52 1015.2
20260504014124 11 74 4.8 6.4 0.00 0.00 0.00 51 1015.1
20260504013518 11 66 3.2 4.8 0.00 0.00 0.00 51 1015.1
20260504012918 10 63 1.6 4.8 0.00 0.00 0.00 52 1015.0
20260504012313 11 0 0.0 0.0 0.00 0.00 0.00 53 1015.0
20260504011716 11 0 0.0 3.2 0.00 0.00 0.00 53 1015.0
20260504011119 11 0 0.0 3.2 0.00 0.00 0.00 50 1014.9
20260504010518 11 64 1.6 6.4 0.00 0.00 0.00 49 1014.9
20260504005920 11 65 1.6 3.2 0.00 0.00 0.00 50 1014.8
20260504005314 11 69 1.6 9.7 0.00 0.00 0.00 49 1014.8
20260504004715 12 75 3.2 11.3 0.00 0.00 0.00 48 1014.8
20260504004113 12 78 4.8 12.9 0.00 0.00 0.00 47 1014.7
20260504003518 12 79 4.8 9.7 0.00 0.00 0.00 47 1014.6
20260504002916 12 76 3.2 9.7 0.00 0.00 0.00 46 1014.5
20260504002313 12 78 3.2 9.7 0.00 0.00 0.00 46 1014.4
20260504001717 12 72 3.2 8.0 0.00 0.00 0.00 45 1014.3
20260504001114 13 85 4.8 11.3 0.00 0.00 0.00 44 1014.3
20260504000521 13 85 6.4 11.3 0.00 0.00 0.00 43 1014.2
20260503235927 13 85 4.8 14.5 0.00 0.00 0.00 42 1014.1
20260503235314 13 79 4.8 12.9 0.00 0.00 0.00 42 1014.0
20260503234724 13 82 4.8 14.5 0.00 0.00 0.00 42 1014.0
20260503234114 14 72 1.6 16.1 0.00 0.00 0.00 41 1013.9
20260503233519 14 89 4.8 16.1 0.00 0.00 0.00 40 1013.9
20260503232916 14 92 6.4 16.1 0.00 0.00 0.00 40 1013.9
20260503232314 14 97 3.2 20.9 0.00 0.00 0.00 40 1013.9
20260503231714 14 95 8.0 25.7 0.00 0.00 0.00 40 1013.9
20260503231120 14 97 4.8 16.1 0.00 0.00 0.00 40 1013.9
20260503230519 14 108 6.4 22.5 0.00 0.00 0.00 40 1013.9
20260503225918 14 94 8.0 24.1 0.00 0.00 0.00 39 1013.8
20260503225313 15 96 9.7 25.7 0.00 0.00 0.00 39 1013.7
20260503224721 15 98 14.5 25.7 0.00 0.00 0.00 39 1013.8
20260503224114 15 124 9.7 17.7 0.00 0.00 0.00 38 1013.8
20260503223513 15 97 8.0 22.5 0.00 0.00 0.00 39 1013.8
20260503222914 15 92 9.7 22.5 0.00 0.00 0.00 39 1013.8
20260503222314 15 116 8.0 19.3 0.00 0.00 0.00 39 1013.8
20260503221713 15 120 6.4 30.6 0.00 0.00 0.00 39 1013.8
20260503221113 15 102 9.7 24.1 0.00 0.00 0.00 38 1013.8
20260503220515 15 105 9.7 20.9 0.00 0.00 0.00 38 1013.8
20260503215916 15 153 9.7 20.9 0.00 0.00 0.00 38 1013.8
20260503215313 15 157 8.0 25.7 0.00 0.00 0.00 39 1013.8
20260503214722 15 97 14.5 25.7 0.00 0.00 0.00 38 1013.8
20260503214113 15 96 14.5 29.0 0.00 0.00 0.00 39 1013.8
20260503213528 15 119 12.9 29.0 0.00 0.00 0.00 39 1013.8
20260503212915 14 89 6.4 25.7 0.00 0.00 0.00 39 1013.8
20260503212327 15 101 12.9 35.4 0.00 0.00 0.00 39 1013.8
20260503211713 15 111 12.9 32.2 0.00 0.00 0.00 39 1013.7
20260503211115 15 170 12.9 22.5 0.00 0.00 0.00 38 1013.6
20260503210519 15 88 8.0 24.1 0.00 0.00 0.00 39 1013.7
20260503205919 15 122 8.0 24.1 0.00 0.00 0.00 39 1013.8
20260503205315 15 112 8.0 20.9 0.00 0.00 0.00 39 1013.8
20260503204713 15 136 8.0 22.5 0.00 0.00 0.00 37 1013.8
20260503204113 15 160 12.9 22.5 0.00 0.00 0.00 38 1013.8
20260503203520 15 145 9.7 33.8 0.00 0.00 0.00 40 1013.9
20260503202923 15 118 12.9 37.0 0.00 0.00 0.00 38 1013.9
20260503202313 14 94 12.9 30.6 0.00 0.00 0.00 41 1013.9
20260503201715 14 171 14.5 30.6 0.00 0.00 0.00 37 1014.0
20260503201114 15 134 11.3 25.7 0.00 0.00 0.00 38 1014.1
20260503200518 14 112 11.3 25.7 0.00 0.00 0.00 39 1014.2
20260503195921 14 129 12.9 27.4 0.00 0.00 0.00 37 1014.2
20260503195313 15 135 12.9 27.4 0.00 0.00 0.00 37 1014.3
20260503194719 14 125 11.3 27.4 0.00 0.00 0.00 39 1014.3
20260503194114 14 106 8.0 27.4 0.00 0.00 0.00 41 1014.3
20260503193515 14 152 14.5 27.4 0.00 0.00 0.00 36 1014.6
20260503192913 14 96 16.1 27.4 0.00 0.00 0.00 40 1014.6
20260503192314 13 132 12.9 27.4 0.00 0.00 0.00 38 1014.7
20260503191713 13 101 14.5 32.2 0.00 0.00 0.00 41 1014.8
20260503191114 13 123 11.3 32.2 0.00 0.00 0.00 40 1014.9
20260503190515 13 167 12.9 30.6 0.00 0.00 0.00 41 1014.8
20260503185914 13 144 12.9 32.2 0.00 0.00 0.00 40 1014.9
20260503185313 13 153 12.9 30.6 0.00 0.00 0.00 43 1015.0
20260503184723 13 168 14.5 30.6 0.00 0.00 0.00 39 1015.1
20260503184113 13 107 14.5 25.7 0.00 0.00 0.00 43 1015.1
20260503183519 13 118 16.1 30.6 0.00 0.00 0.00 42 1015.2
20260503182919 12 136 12.9 33.8 0.00 0.00 0.00 43 1015.3
20260503182316 12 122 11.3 27.4 0.00 0.00 0.00 44 1015.3
20260503181723 12 152 14.5 27.4 0.00 0.00 0.00 40 1015.2
20260503181115 13 145 14.5 22.5 0.00 0.00 0.00 41 1015.3
20260503180528 12 152 11.3 24.1 0.00 0.00 0.00 41 1015.3
20260503175913 12 115 14.5 30.6 0.00 0.00 0.00 44 1015.4
20260503175315 12 113 11.3 32.2 0.00 0.00 0.00 43 1015.4
20260503174713 12 166 14.5 32.2 0.00 0.00 0.00 42 1015.4
20260503174113 12 143 8.0 29.0 0.00 0.00 0.00 44 1015.4
20260503173518 12 174 12.9 29.0 0.00 0.00 0.00 42 1015.5
20260503172913 12 144 9.7 25.7 0.00 0.00 0.00 44 1015.5
20260503172313 11 153 11.3 25.7 0.00 0.00 0.00 42 1015.5
20260503171717 11 146 11.3 20.9 0.00 0.00 0.00 41 1015.6
20260503171120 11 195 8.0 29.0 0.00 0.00 0.00 42 1015.6
20260503170515 11 150 12.9 29.0 0.00 0.00 0.00 43 1015.7
20260503150519 9 156 17.7 27.4 0.00 0.00 0.00 51 1016.6
20260503131114 7 168 6.4 24.1 0.00 0.00 0.00 64 1016.6
20260503130524 7 148 12.9 24.1 0.00 0.00 0.00 63 1016.5
20260503110514 5 246 1.6 8.0 0.00 0.00 0.00 74 1015.6